[[{"header":{"parameterUnit":"m.s-1","parameterCategory":2,"la1":30.2992,"la2":30.254,"lo1":-89.0895,"lo2":-89.0443,"dy":0.0025,"dx":0.0025,"nx":19,"ny":19,"refTime":"2026-04-21T21:00:00:Z","depth":"0","parameterNumber":2,"parameterNumberName":"U-component_of_CURRENTS"},"data":[0,0,0,0.105,0.1051,0.1149,0.115,0.1331,0.1333,0,0,0,0,0,0,0,0,0,0,0,0.1017,0.1018,0.105,0.1052,0.1149,0.115,0.1331,0.1333,0,0,0,0,0,0,0,0,0,0,0,0.1017,0.1018,0.1018,0.1052,0.1149,0.115,0.1331,0.1246,0,0,0,0,0,0,0,0,0,0,0.1146,0.1098,0.1018,0.1018,0.1052,0.1149,0.115,0.1242,0.1251,0.1299,0,0.1307,0,0.132,0.1345,0.1346,0,0,0,0.1065,0.1089,0.1118,0.1018,0.1053,0.1149,0.1109,0.1247,0.1258,0.1313,0.131,0.1316,0.1323,0.1346,0.1347,0.1504,0.1504,0,0,0.1059,0.1038,0.111,0.1125,0.1071,0.1105,0.1112,0.1253,0.1261,0.131,0.132,0.1326,0.1348,0.1349,0.1504,0.1504,0,0,0,0.1035,0.1034,0.1059,0.1118,0.1129,0.1108,0.1115,0.1255,0.1264,0.1322,0.1329,0.1349,0.1351,0.1503,0.1504,0.1501,0,0,0,0.1032,0.1019,0.1056,0.1045,0.1125,0.1184,0.1114,0.1254,0.127,0.1328,0.1349,0.1353,0.1503,0.1504,0.1501,0.1503,0,0,0,0.1014,0.1017,0.1026,0.1043,0.108,0.1182,0.1199,0.1258,0.1274,0.1346,0.1353,0.1503,0.1503,0.15,0.1502,0.1541,0,0,0,0.0993,0.101,0.1026,0.1056,0.1079,0.1164,0.1198,0.1268,0.1328,0.135,0.1503,0.1504,0.15,0.1501,0.154,0.1543,0.1549,0,0,0.1003,0.101,0.1031,0.1048,0.1115,0.1152,0.1241,0.1324,0.1358,0.1462,0.1466,0.1501,0.1502,0.1541,0.159,0.1594,0,0,0,0.1029,0.1041,0.1066,0.1108,0.117,0.124,0.1315,0.1353,0.1436,0.1394,0.1518,0.1519,0.1544,0.1544,0.1547,0.1301,0.1507,0.1507,0.1507,0.1014,0.1054,0.1097,0.1157,0.1216,0.1312,0.1374,0.1442,0.147,0.1497,0.153,0.1575,0.1575,0.1577,0.1323,0.1543,0.1543,0.1543,0.1543,0.103,0.1056,0.1115,0.1167,0.1248,0.1328,0.1448,0.1476,0.1565,0.1555,0.1579,0.1556,0.1581,0.1309,0.1543,0.1543,0.1543,0.1543,0.1543,0.1013,0.1032,0.1064,0.1148,0.1237,0.134,0.1442,0.1514,0.1565,0.1594,0.1613,0.1613,0.1365,0.1608,0.1609,0.1609,0.1609,0.1609,0.1609,0.0978,0.1016,0.1058,0.1142,0.1203,0.1308,0.1445,0.1509,0.1591,0.1622,0.1623,0.1348,0.1596,0.1583,0.1612,0.1611,0.1611,0.1611,0.1611,0.097,0.0985,0.1047,0.1101,0.124,0.1317,0.1437,0.1549,0.1617,0.1649,0.1364,0.1651,0.1658,0.1655,0.1645,0.1689,0.1689,0.1689,0.1689,0.0959,0.0974,0.1055,0.114,0.1248,0.1334,0.1395,0.146,0.1399,0.1303,0.1254,0.1183,0.1191,0.1166,0.1173,0.1151,0.1068,0.1067,0.1066,0.0967,0.0991,0.1046,0.1132,0.1254,0.1332,0.1327,0.1239,0.1103,0.1012,0.0903,0.093,0.0796,0.0829,0.0768,0.0799,0.0757,0,0]},{"header":{"parameterUnit":"m.s-1","parameterCategory":2,"la1":30.2992,"la2":30.254,"lo1":-89.0895,"lo2":-89.0443,"dy":0.0025,"dx":0.0025,"nx":19,"ny":19,"refTime":"2026-04-21T21:00:00:Z","depth":"0","parameterNumber":3,"parameterNumberName":"V-component_of_CURRENTS"},"data":[0,0,0,-0.0021,-0.0021,-0.0047,-0.0047,-0.0128,-0.0129,0,0,0,0,0,0,0,0,0,0,0,-0.0016,-0.0016,-0.0021,-0.0021,-0.0047,-0.0047,-0.0128,-0.0129,0,0,0,0,0,0,0,0,0,0,0,-0.0016,-0.0016,-0.0016,-0.0021,-0.0047,-0.0047,-0.0128,-0.0099,0,0,0,0,0,0,0,0,0,0,-0.0069,-0.0049,-0.0016,-0.0016,-0.0021,-0.0047,-0.0047,-0.0097,-0.0101,-0.0127,0,-0.0125,0,-0.0124,-0.0135,-0.0135,0,0,0,-0.0032,-0.0046,-0.0055,-0.0016,-0.0021,-0.0047,-0.0038,-0.0099,-0.0103,-0.0131,-0.0126,-0.0129,-0.0125,-0.0135,-0.0136,-0.0193,-0.0193,0,0,-0.0031,-0.0023,-0.0051,-0.0057,-0.0022,-0.0038,-0.0039,-0.0101,-0.0103,-0.0126,-0.013,-0.0126,-0.0136,-0.0136,-0.0193,-0.0193,0,0,0,-0.0019,-0.0021,-0.0028,-0.0054,-0.0052,-0.0038,-0.004,-0.0101,-0.0103,-0.0131,-0.0127,-0.0136,-0.0137,-0.0193,-0.0193,-0.0152,0,0,0,-0.0019,-0.0014,-0.0027,-0.0023,-0.005,-0.0069,-0.0038,-0.0099,-0.0105,-0.0127,-0.0136,-0.0138,-0.0193,-0.0193,-0.0153,-0.0131,0,0,0,-0.0015,-0.0013,-0.0015,-0.0022,-0.0028,-0.0067,-0.0073,-0.01,-0.0103,-0.0135,-0.0138,-0.0193,-0.0193,-0.0154,-0.0133,-0.011,0,0,0,-0.001,-0.0005,-0.0014,-0.0009,-0.0028,-0.0044,-0.0073,-0.0092,-0.0117,-0.0137,-0.0193,-0.0193,-0.0154,-0.0135,-0.0111,0.0023,0.004,0,0,0.0,-0.0003,0.0,-0.0009,-0.001,-0.0041,-0.0056,-0.0099,-0.0128,-0.0178,-0.0179,-0.0153,-0.0134,-0.011,0.0021,0.0038,0,0,0,0.0006,0.001,0.0007,0.0005,-0.0013,-0.0033,-0.0073,-0.0094,-0.013,-0.014,-0.0165,-0.0154,-0.0141,-0.0063,-0.005,0.0014,-0.0193,-0.0193,-0.0193,0.0028,0.0022,0.0026,0.0015,0.0001,-0.0034,-0.0051,-0.0089,-0.0122,-0.013,-0.013,-0.0097,-0.0014,-0.0003,0.006,-0.0143,-0.0143,-0.0143,-0.0143,0.005,0.0054,0.0042,0.0045,0.0019,0.0001,-0.0041,-0.0059,-0.0078,-0.011,-0.0099,-0.0035,0.0015,0.0077,-0.0141,-0.0141,-0.0141,-0.0141,-0.0142,0.0069,0.0068,0.007,0.007,0.0058,0.0026,0.0022,-0.0013,-0.0038,-0.0029,0.0051,0.0052,0.0114,-0.0023,-0.0023,-0.0022,-0.0022,-0.0022,-0.0022,0.0086,0.0086,0.0098,0.0094,0.0094,0.0085,0.0059,0.0064,0.01,0.0108,0.0109,0.0146,-0.0061,-0.0056,-0.0019,-0.0019,-0.002,-0.002,-0.002,0.0107,0.0107,0.0127,0.0133,0.0136,0.0166,0.0144,0.0226,0.0231,0.0286,0.0355,0.0182,0.0183,0.0173,0.0184,0.028,0.028,0.028,0.028,0.0122,0.0123,0.015,0.0164,0.0177,0.0197,0.0324,0.0429,0.0514,0.0576,0.0511,0.0526,0.0511,0.0529,0.0511,0.0527,0.0708,0.0708,0.0709,0.0136,0.0141,0.0164,0.0177,0.0193,0.0252,0.0427,0.0647,0.0761,0.0725,0.0572,0.0554,0.0568,0.0539,0.0557,0.0527,0.0548,0,0]}],[{"header":{"parameterUnit":"m.s-1","parameterCategory":2,"la1":30.2992,"la2":30.254,"lo1":-89.0895,"lo2":-89.0443,"dy":0.0025,"dx":0.0025,"nx":19,"ny":19,"refTime":"2026-04-21T21:00:00:Z","depth":"2","parameterNumber":2,"parameterNumberName":"U-component_of_CURRENTS"},"data":[0,0,0,0.1055,0.1055,0.1108,0.1109,0.1263,0.1265,0,0,0,0,0,0,0,0,0,0,0,0.1049,0.1049,0.1055,0.1055,0.1108,0.1109,0.1263,0.1265,0,0,0,0,0,0,0,0,0,0,0,0.1049,0.1049,0.1049,0.1056,0.1108,0.1109,0.1263,0.1204,0,0,0,0,0,0,0,0,0,0,0.1143,0.1107,0.1049,0.1049,0.1056,0.1108,0.1109,0.1201,0.1208,0.126,0,0.1268,0,0.1262,0.1276,0.1277,0,0,0,0.1069,0.11,0.1125,0.105,0.1056,0.1108,0.1088,0.1204,0.1213,0.127,0.127,0.1275,0.1264,0.1277,0.1278,0.1417,0.1418,0,0,0.1066,0.1052,0.1119,0.113,0.1072,0.1086,0.109,0.1208,0.1215,0.127,0.1278,0.1267,0.1278,0.1279,0.1417,0.1417,0,0,0,0.1048,0.105,0.107,0.1125,0.1123,0.1088,0.1091,0.1209,0.1219,0.1279,0.1269,0.1279,0.1281,0.1417,0.1417,0.1431,0,0,0,0.1047,0.1039,0.1069,0.106,0.112,0.115,0.1089,0.1211,0.1223,0.1268,0.1279,0.1283,0.1416,0.1417,0.143,0.144,0,0,0,0.1046,0.1038,0.1047,0.106,0.1076,0.1148,0.1164,0.1213,0.1217,0.1277,0.1283,0.1416,0.1417,0.1429,0.1439,0.148,0,0,0,0.1027,0.104,0.1047,0.1059,0.1075,0.1126,0.1162,0.1219,0.1271,0.128,0.1416,0.1417,0.1428,0.1438,0.1478,0.1428,0.1431,0,0,0.1034,0.1041,0.1049,0.1056,0.1091,0.1119,0.1176,0.1262,0.1298,0.1385,0.1388,0.143,0.1439,0.148,0.1467,0.1469,0,0,0,0.1044,0.1052,0.1063,0.1083,0.1121,0.1172,0.1236,0.1281,0.137,0.1328,0.144,0.1445,0.1471,0.1438,0.1439,0.142,0.142,0.142,0.142,0.1033,0.1054,0.1072,0.1108,0.1149,0.1225,0.1283,0.1358,0.1388,0.1431,0.1463,0.1514,0.1478,0.1479,0.1469,0.1469,0.1469,0.1469,0.1469,0.1041,0.105,0.1087,0.1118,0.1179,0.1244,0.1355,0.1396,0.1496,0.1492,0.1516,0.1462,0.1481,0.1471,0.147,0.147,0.147,0.147,0.147,0.1026,0.1035,0.1057,0.1116,0.1188,0.1273,0.1367,0.1447,0.1516,0.155,0.1533,0.1532,0.1529,0.157,0.157,0.157,0.1571,0.1571,0.1571,0.1005,0.1025,0.1061,0.1123,0.1171,0.1258,0.1389,0.1452,0.1528,0.1553,0.1553,0.1548,0.1545,0.1536,0.1575,0.1574,0.1573,0.1573,0.1573,0.0999,0.101,0.1052,0.1095,0.1203,0.1241,0.1351,0.1451,0.1531,0.1557,0.156,0.1559,0.1555,0.1553,0.1544,0.1583,0.1583,0.1583,0.1583,0.0991,0.1002,0.1049,0.1113,0.1192,0.1243,0.1244,0.1182,0.1276,0.1215,0.123,0.1156,0.1166,0.1136,0.1143,0.1124,0.1054,0.1052,0.1051,0.0997,0.0997,0.1029,0.1092,0.119,0.1214,0.1124,0.0853,0.0759,0.1017,0.1007,0.1573,0.1506,0.1505,0.1492,0.149,0.1473,0,0]},{"header":{"parameterUnit":"m.s-1","parameterCategory":2,"la1":30.2992,"la2":30.254,"lo1":-89.0895,"lo2":-89.0443,"dy":0.0025,"dx":0.0025,"nx":19,"ny":19,"refTime":"2026-04-21T21:00:00:Z","depth":"2","parameterNumber":3,"parameterNumberName":"V-component_of_CURRENTS"},"data":[0,0,0,-0.0007,-0.0006,-0.0001,-0.0001,-0.0027,-0.0027,0,0,0,0,0,0,0,0,0,0,0,-0.0017,-0.0017,-0.0007,-0.0006,-0.0001,-0.0001,-0.0027,-0.0027,0,0,0,0,0,0,0,0,0,0,0,-0.0017,-0.0017,-0.0017,-0.0006,-0.0001,-0.0001,-0.0027,-0.0025,0,0,0,0,0,0,0,0,0,0,-0.0027,-0.0022,-0.0017,-0.0017,-0.0006,-0.0001,-0.0001,-0.0025,-0.0025,-0.0036,0,-0.0034,0,-0.0024,-0.0029,-0.0029,0,0,0,-0.0015,-0.0022,-0.0024,-0.0017,-0.0006,-0.0001,-0.0006,-0.0025,-0.0025,-0.0037,-0.0035,-0.0035,-0.0025,-0.0029,-0.0029,-0.0033,-0.0032,0,0,-0.0016,-0.0014,-0.0023,-0.0024,-0.0004,-0.0006,-0.0006,-0.0025,-0.0024,-0.0035,-0.0035,-0.0025,-0.0029,-0.0029,-0.0033,-0.0032,0,0,0,-0.001,-0.0014,-0.0015,-0.0023,-0.0016,-0.0006,-0.0005,-0.0023,-0.0025,-0.0035,-0.0025,-0.0029,-0.003,-0.0033,-0.0033,-0.0013,0,0,0,-0.0011,-0.001,-0.0015,-0.0014,-0.0015,-0.0012,-0.0003,-0.0024,-0.0025,-0.0025,-0.0029,-0.003,-0.0033,-0.0033,-0.0013,0.0006,0,0,0,-0.0018,-0.0011,-0.0011,-0.0014,-0.0007,-0.0012,-0.0014,-0.0024,-0.0019,-0.0029,-0.003,-0.0033,-0.0033,-0.0014,0.0004,0.0028,0,0,0,-0.0015,-0.0009,-0.0011,0.0004,-0.0007,0.001,-0.0014,-0.0013,-0.0021,-0.0029,-0.0033,-0.0033,-0.0014,0.0003,0.0027,0.0216,0.0237,0,0,-0.0006,-0.0008,0.0002,0.0001,0.0028,0.0009,0.0028,-0.0,-0.0019,-0.0031,-0.0031,-0.0013,0.0004,0.0028,0.0236,0.0257,0,0,0,0.0007,0.0013,0.0023,0.0037,0.0046,0.0054,0.0033,0.0021,0.0,-0.0019,-0.0012,-0.0001,0.0013,0.0125,0.0141,-0.0031,-0.0031,-0.0031,-0.0031,0.0021,0.003,0.0053,0.0066,0.0075,0.0076,0.0076,0.0054,0.0024,0.0017,0.0016,0.005,0.017,0.0184,0.0011,0.0011,0.0011,0.0011,0.0011,0.0043,0.0059,0.007,0.009,0.01,0.0105,0.0104,0.0084,0.0078,0.0044,0.0057,0.0142,0.0203,0.0013,0.0012,0.0012,0.0012,0.0012,0.0012,0.0056,0.0065,0.0074,0.0099,0.0117,0.012,0.014,0.012,0.0101,0.0109,0.0224,0.0226,0.0069,0.0104,0.0104,0.0104,0.0105,0.0105,0.0105,0.0064,0.0077,0.0093,0.0114,0.0131,0.0152,0.0159,0.0178,0.0247,0.0274,0.0276,0.0081,0.0078,0.0075,0.0108,0.0107,0.0107,0.0107,0.0106,0.0084,0.0086,0.0117,0.0135,0.018,0.0252,0.0252,0.038,0.0396,0.0477,0.0381,0.0373,0.0389,0.0378,0.0383,0.0493,0.0493,0.0493,0.0493,0.0097,0.01,0.0147,0.0184,0.0237,0.0299,0.047,0.0607,0.0655,0.0686,0.0676,0.0694,0.0677,0.0706,0.0688,0.0697,0.0889,0.0889,0.0889,0.0116,0.0132,0.0168,0.0203,0.0266,0.0377,0.0597,0.0753,0.0811,0.0894,0.0637,0.054,0.0544,0.0524,0.0549,0.0527,0.0534,0,0]}],[{"header":{"parameterUnit":"m.s-1","parameterCategory":2,"la1":30.2992,"la2":30.254,"lo1":-89.0895,"lo2":-89.0443,"dy":0.0025,"dx":0.0025,"nx":19,"ny":19,"refTime":"2026-04-21T21:00:00:Z","depth":"4","parameterNumber":2,"parameterNumberName":"U-component_of_CURRENTS"},"data":[0,0,0,0.0525,0.0524,0.0471,0.0471,0.0379,0.0378,0,0,0,0,0,0,0,0,0,0,0,0.0537,0.0537,0.0525,0.0524,0.0471,0.0471,0.0379,0.0378,0,0,0,0,0,0,0,0,0,0,0,0.0537,0.0537,0.0537,0.0524,0.0471,0.0471,0.0379,0.0422,0,0,0,0,0,0,0,0,0,0,0.0475,0.0512,0.0537,0.0537,0.0524,0.0471,0.0471,0.0424,0.0419,0.0401,0,0.0397,0,0.0394,0.0373,0.0373,0,0,0,0.0509,0.0516,0.0488,0.0537,0.0523,0.0471,0.0491,0.0421,0.0416,0.0394,0.0396,0.0393,0.0393,0.0372,0.0372,0.0331,0.0331,0,0,0.0512,0.0538,0.0492,0.0485,0.0515,0.0493,0.0489,0.0418,0.0423,0.0396,0.0391,0.0391,0.0372,0.0371,0.0331,0.0331,0,0,0,0.0531,0.054,0.0514,0.0488,0.0485,0.0491,0.0488,0.0426,0.0413,0.039,0.039,0.0371,0.037,0.0331,0.0331,0.0328,0,0,0,0.0532,0.0551,0.0515,0.0531,0.0487,0.0464,0.0497,0.0418,0.041,0.039,0.0371,0.037,0.0331,0.0331,0.0327,0.0319,0,0,0,0.0538,0.0553,0.0545,0.0532,0.0515,0.0464,0.0448,0.0416,0.0411,0.0372,0.0369,0.0331,0.0331,0.0327,0.0319,0.0339,0,0,0,0.0567,0.0552,0.0546,0.0524,0.0516,0.046,0.0448,0.0421,0.0391,0.0371,0.0331,0.0331,0.0327,0.0319,0.0338,0.0245,0,0,0,0.0558,0.0553,0.0534,0.0526,0.0473,0.0466,0.0417,0.0387,0.0391,0.0349,0.0348,0.0328,0.0319,0.0339,0.0267,0,0,0,0,0.0536,0.0523,0.0503,0.0477,0.044,0.0408,0.0384,0.0376,0.0364,0.0378,0.0336,0.0331,0.0343,0.0288,0.0333,0.0333,0.0333,0.0333,0.0333,0.0563,0.0524,0.0483,0.0432,0.0401,0.037,0.0346,0.0337,0.034,0.0353,0.0335,0.0355,0.0296,0.0346,0.0346,0.0346,0.0346,0.0346,0.0346,0.0533,0.0496,0.0459,0.041,0.0376,0.0346,0.0304,0.0318,0.0318,0.0329,0.0342,0.0296,0.0346,0.0346,0.0346,0.0346,0.0346,0.0346,0.0346,0.0533,0.0505,0.0485,0.0413,0.0379,0.0339,0.0287,0.0299,0.0322,0.033,0.0305,0.0358,0.0352,0.0362,0.0362,0.0362,0.0362,0.0362,0.0362,0.054,0.0506,0.0465,0.0409,0.0365,0.0319,0.03,0.0268,0.0297,0.0289,0.0351,0.036,0.036,0.0353,0.0363,0.0363,0.0363,0.0363,0.0363,0.0507,0.0511,0.0434,0.0388,0.0268,0.0219,0.0234,0.0203,0.0204,0.019,0.0265,0.027,0.0265,0.0267,0.0257,0.0239,0.0237,0.0236,0,0.0503,0.0492,0.0385,0.0268,0.0145,0.0122,0.0077,0.0073,0.0122,0.0142,0.0176,0.0261,0.0264,0.0257,0.0257,0.0243,0,0,0,0.048,0.0451,0.0362,0.0231,0.0065,0.001,0.005,0.0048,0.0157,0.0086,0.0207,0.0215,0.0207,0.0366,0.0369,0.0369,0.0359,0,0]},{"header":{"parameterUnit":"m.s-1","parameterCategory":2,"la1":30.2992,"la2":30.254,"lo1":-89.0895,"lo2":-89.0443,"dy":0.0025,"dx":0.0025,"nx":19,"ny":19,"refTime":"2026-04-21T21:00:00:Z","depth":"4","parameterNumber":3,"parameterNumberName":"V-component_of_CURRENTS"},"data":[0,0,0,0.0159,0.016,0.0255,0.0256,0.0421,0.0422,0,0,0,0,0,0,0,0,0,0,0,0.0132,0.0133,0.0159,0.0161,0.0255,0.0256,0.0421,0.0422,0,0,0,0,0,0,0,0,0,0,0,0.0132,0.0132,0.0133,0.0161,0.0255,0.0256,0.042,0.0341,0,0,0,0,0,0,0,0,0,0,0.0246,0.0204,0.0132,0.0133,0.0161,0.0255,0.0256,0.0337,0.0346,0.0386,0,0.0396,0,0.0406,0.0433,0.0433,0,0,0,0.0175,0.0196,0.0224,0.0133,0.0162,0.0255,0.0217,0.0342,0.0352,0.0398,0.0399,0.0404,0.0409,0.0434,0.0435,0.0599,0.0599,0,0,0.017,0.0151,0.0216,0.023,0.0182,0.0213,0.0219,0.0348,0.0357,0.0399,0.0408,0.0411,0.0435,0.0436,0.0598,0.0599,0,0,0,0.0145,0.0148,0.0172,0.0223,0.0233,0.0216,0.0223,0.0351,0.036,0.041,0.0413,0.0436,0.0438,0.0597,0.0598,0.0611,0,0,0,0.0143,0.0132,0.0169,0.0159,0.023,0.0285,0.0223,0.0351,0.0365,0.0412,0.0436,0.0439,0.0597,0.0598,0.0609,0.0616,0,0,0,0.0128,0.0131,0.014,0.0158,0.0192,0.0283,0.03,0.0354,0.0367,0.0434,0.044,0.0596,0.0598,0.0607,0.0614,0.0669,0,0,0,0.0108,0.0126,0.014,0.0171,0.0191,0.0273,0.0299,0.0366,0.0422,0.0437,0.0597,0.0598,0.0607,0.0612,0.0667,0.0572,0,0,0,0.012,0.0127,0.0149,0.0163,0.0232,0.0261,0.035,0.0426,0.0459,0.0559,0.0562,0.061,0.0614,0.0668,0.0656,0,0,0,0,0.0146,0.0161,0.0187,0.0228,0.0286,0.0356,0.0421,0.046,0.0551,0.0496,0.0635,0.0638,0.0672,0.0611,0.0605,0.0605,0.0605,0.0605,0.0604,0.0136,0.0175,0.0226,0.0287,0.0343,0.0432,0.0494,0.0563,0.0589,0.0629,0.0667,0.0742,0.0679,0.0687,0.0687,0.0688,0.0688,0.0688,0.0688,0.0163,0.0199,0.0257,0.0317,0.0395,0.0474,0.0586,0.0614,0.0721,0.0709,0.0741,0.0651,0.069,0.0689,0.0689,0.0689,0.0689,0.0688,0.0688,0.0159,0.0186,0.0222,0.0315,0.0412,0.051,0.0626,0.0693,0.0741,0.0779,0.0748,0.077,0.0749,0.081,0.081,0.0811,0.0811,0.0811,0.0811,0.0142,0.0184,0.0235,0.0328,0.0403,0.0516,0.0662,0.0722,0.0779,0.0767,0.08,0.0784,0.078,0.0758,0.0816,0.0815,0.0814,0.0814,0.0814,0.0157,0.0166,0.0241,0.0307,0.0471,0.055,0.0677,0.0743,0.0807,0.08,0.0769,0.077,0.0764,0.0761,0.0738,0.0792,0.0791,0.079,0,0.0159,0.0171,0.0271,0.0377,0.0499,0.059,0.0662,0.0719,0.0746,0.0725,0.0811,0.0775,0.0775,0.0766,0.0762,0.0734,0,0,0,0.018,0.0202,0.0277,0.0377,0.0521,0.0604,0.0682,0.0686,0.073,0.0731,0.0765,0.0771,0.0785,0.0829,0.0823,0.0818,0.0783,0,0]}]]